{"data":{"norad_id":62058,"epoch":"2026-09-21T12:20:46.434048Z","epoch_age_seconds":93918,"freshness":"FRESH","line1":"1 62058U 24217B   26264.51442632  .00164196  00000+0  13313-2 0  9993","line2":"2 62058  53.1568 185.6478 0001234  83.4941 276.6217 15.69749681105877","mean_motion":15.69749681,"eccentricity":0.0001234,"inclination_deg":53.1568,"raan_deg":185.6478,"arg_perigee_deg":83.4941,"mean_anomaly_deg":276.6217,"bstar":0.0013313,"rev_number":10587,"period_min":91.734371245908,"perigee_km":358.78176260409,"apogee_km":360.44463935369,"semimajor_km":6737.7502009789,"source":"CELESTRAK","updated_at":"2026-09-22T09:00:49.491609Z"}}